Quick links : Home Page : Contact Us : Index : Site Map : Search Site : Ephemerides


110P/Hartley

Orbital Elements

The following orbital elements are taken from MPC 54167:
110P/Hartley
Epoch 2008 Jan. 15.0 TT = JDT 2454480.5
T 2008 Feb. 3.4876 TT                                   MPC
q   2.488461             (2000.0)            P               Q
n   0.1431129      Peri.  167.8003      -0.1008138      -0.9760447
a   3.619792       Node   287.7458      +0.8949472      -0.0043065
e   0.312540       Incl.   11.6795      +0.4346332      -0.2175276
P   6.89
From 374 observations 1988-2002, mean residual 0".8.  Nongravitational
     parameters A1 = -0.93, A2 = -0.1020.
Elements are also available for the current standard epoch:
110P/Hartley
Epoch 2008 May 14.0 TT = JDT 2454600.5
T 2008 Feb. 3.4423 TT                                   MPC
q   2.488433             (2000.0)            P               Q
n   0.1431195      Peri.  167.7874      -0.1005901      -0.9760674
a   3.619681       Node   287.7456      +0.8949482      -0.0041006
e   0.312527       Incl.   11.6796      +0.4346830      -0.2174297
P   6.89
An explanation of the orbital elements is available.

These orbital elements are also available in forms suitable for loading into a number of popular planetarium-type software programs.


Ephemeris

The following ephemeris is at intervals of five days. A daily ephemeris covering the same time interval is also available.

Personalized ephemerides for this (and other) objects may be generated using the Minor Planet & Comet Ephemeris Service.

Recent magnitude estimates for this comet (as reported to the ICQ) may be available.

Date    TT    R. A. (2000) Decl.     Delta      r     Elong.  Phase   m1    m2

WARNING!

This comet gets close to the sun during the period covered in the ephemeris below. Observers are warned to be wary of observing comets near the sun. NEVER point any kind of optical instrument at the sun--instant blindness will be the probable result.

2008 07 13 08 50.04 +13 00.1 3.591 2.667 20.9 7.8 16.6 21.0 2008 07 18 08 58.52 +12 16.0 3.622 2.677 18.5 6.9 16.6 20.9 2008 07 23 09 06.94 +11 30.6 3.650 2.688 16.1 6.0 16.7 20.9 2008 07 28 09 15.29 +10 44.0 3.675 2.699 13.7 5.1 16.8 20.9 2008 08 02 09 23.58 +09 56.3 3.698 2.710 11.4 4.2 16.8 20.9 2008 08 07 09 31.78 +09 07.4 3.718 2.721 9.2 3.4 16.9 20.9 2008 08 12 09 39.91 +08 17.6 3.735 2.733 7.3 2.7 17.0 20.8 2008 08 17 09 47.95 +07 26.9 3.750 2.745 6.0 2.2 17.0 20.8 2008 08 22 09 55.91 +06 35.4 3.761 2.757 5.7 2.1 17.1 20.8 2008 08 27 10 03.78 +05 43.1 3.770 2.769 6.5 2.4 17.2 20.9 2008 09 01 10 11.56 +04 50.1 3.776 2.781 8.2 3.0 17.2 20.9 2008 09 06 10 19.25 +03 56.5 3.779 2.793 10.4 3.7 17.3 21.0 2008 09 11 10 26.85 +03 02.4 3.779 2.806 12.8 4.6 17.3 21.0 2008 09 16 10 34.34 +02 08.0 3.776 2.819 15.3 5.4 17.4 21.1 2008 09 21 10 41.73 +01 13.2 3.770 2.832 18.0 6.3 17.4 21.1 2008 09 26 10 49.01 +00 18.1 3.760 2.845 20.7 7.2 17.5 21.2 2008 10 01 10 56.19 -00 37.1 3.748 2.858 23.5 8.0 17.5 21.2 2008 10 06 11 03.24 -01 32.4 3.733 2.871 26.3 8.9 17.6 21.3 2008 10 11 11 10.18 -02 27.7 3.714 2.885 29.2 9.7 17.7 21.3 2008 10 16 11 16.98 -03 22.9 3.693 2.898 32.2 10.6 17.7 21.3 2008 10 21 11 23.66 -04 17.9 3.668 2.912 35.2 11.4 17.7 21.3 2008 10 26 11 30.19 -05 12.7 3.640 2.925 38.3 12.1 17.8 21.4 2008 10 31 11 36.57 -06 07.0 3.610 2.939 41.4 12.9 17.8 21.4 2008 11 05 11 42.78 -07 01.0 3.577 2.953 44.6 13.6 17.9 21.4 2008 11 10 11 48.82 -07 54.4 3.540 2.967 47.8 14.3 17.9 21.4 2008 11 15 11 54.68 -08 47.1 3.502 2.981 51.1 15.0 18.0 21.4 2008 11 20 12 00.33 -09 39.1 3.460 2.996 54.5 15.6 18.0 21.4 2008 11 25 12 05.77 -10 30.3 3.416 3.010 57.9 16.1 18.0 21.4 2008 11 30 12 10.98 -11 20.6 3.370 3.024 61.4 16.6 18.1 21.4 2008 12 05 12 15.93 -12 09.9 3.322 3.039 65.0 17.1 18.1 21.4 2008 12 10 12 20.61 -12 58.0 3.271 3.053 68.6 17.5 18.1 21.4 2008 12 15 12 25.00 -13 44.8 3.220 3.068 72.3 17.8 18.1 21.4 2008 12 20 12 29.07 -14 30.3 3.166 3.082 76.1 18.1 18.2 21.4 2008 12 25 12 32.80 -15 14.3 3.112 3.097 80.0 18.2 18.2 21.4 2008 12 30 12 36.16 -15 56.6 3.056 3.112 84.0 18.3 18.2 21.3 2009 01 04 12 39.13 -16 37.1 3.000 3.126 88.1 18.3 18.2 21.3 2009 01 09 12 41.67 -17 15.5 2.944 3.141 92.3 18.2 18.3 21.3 2009 01 14 12 43.77 -17 51.8 2.888 3.156 96.6 18.0 18.3 21.2 2009 01 19 12 45.40 -18 25.7 2.833 3.171 100.9 17.7 18.3 21.2 2009 01 24 12 46.54 -18 56.9 2.779 3.185 105.4 17.3 18.3 21.1 2009 01 29 12 47.16 -19 25.2 2.726 3.200 110.0 16.8 18.3 21.1 2009 02 03 12 47.24 -19 50.3 2.676 3.215 114.7 16.2 18.4 21.0 2009 02 08 12 46.79 -20 11.9 2.628 3.230 119.5 15.4 18.4 21.0 2009 02 13 12 45.81 -20 29.9 2.583 3.245 124.4 14.5 18.4 20.9 2009 02 18 12 44.30 -20 43.8 2.542 3.260 129.3 13.6 18.4 20.9 2009 02 23 12 42.30 -20 53.5 2.506 3.275 134.3 12.5 18.4 20.8 2009 02 28 12 39.82 -20 58.8 2.474 3.289 139.3 11.3 18.5 20.8 2009 03 05 12 36.93 -20 59.4 2.447 3.304 144.3 10.1 18.5 20.7 2009 03 10 12 33.70 -20 55.5 2.427 3.319 149.2 8.8 18.6 20.6 2009 03 15 12 30.20 -20 47.0 2.412 3.334 153.9 7.6 18.6 20.6 2009 03 20 12 26.50 -20 34.2 2.404 3.349 158.0 6.4 18.7 20.5 2009 03 25 12 22.71 -20 17.4 2.404 3.364 161.4 5.4 18.7 20.5 2009 03 30 12 18.92 -19 57.0 2.410 3.378 163.3 4.9 18.8 20.5 2009 04 04 12 15.23 -19 33.6 2.423 3.393 163.4 4.8 18.8 20.5 2009 04 09 12 11.73 -19 07.9 2.443 3.408 161.6 5.3 18.9 20.5 2009 04 14 12 08.48 -18 40.6 2.470 3.423 158.4 6.2 19.0 20.6 2009 04 19 12 05.57 -18 12.3 2.504 3.437 154.3 7.3 19.1 20.7 2009 04 24 12 03.04 -17 43.8 2.545 3.452 149.9 8.4 19.2 20.8 2009 04 29 12 00.94 -17 15.7 2.592 3.467 145.2 9.5 19.3 20.9 2009 05 04 11 59.30 -16 48.7 2.644 3.481 140.5 10.6 19.4 21.0 2009 05 09 11 58.13 -16 23.2 2.702 3.496 135.7 11.6 19.5 21.1 2009 05 14 11 57.44 -15 59.7 2.764 3.510 131.0 12.6 19.6 21.2 2009 05 19 11 57.22 -15 38.5 2.831 3.525 126.3 13.4 19.7 21.3 2009 05 24 11 57.46 -15 19.8 2.901 3.539 121.7 14.1 19.8 21.4 2009 05 29 11 58.15 -15 03.8 2.975 3.554 117.1 14.7 19.9 21.4 2009 06 03 11 59.28 -14 50.7 3.051 3.568 112.7 15.2 20.0 21.5 2009 06 08 12 00.81 -14 40.4 3.130 3.582 108.4 15.6 20.1 21.6 2009 06 13 12 02.73 -14 33.0 3.211 3.596 104.1 15.9 20.2 21.7 2009 06 18 12 05.00 -14 28.3 3.293 3.611 100.0 16.1 20.3 21.7 2009 06 23 12 07.61 -14 26.5 3.377 3.625 95.9 16.2 20.4 21.8 2009 06 28 12 10.54 -14 27.2 3.461 3.639 91.9 16.2 20.5 21.9 2009 07 03 12 13.75 -14 30.5 3.545 3.653 88.0 16.1 20.6 21.9 2009 07 08 12 17.24 -14 36.2 3.629 3.667 84.1 16.0 20.7 22.0 2009 07 13 12 20.97 -14 44.2 3.713 3.681 80.3 15.8 20.8 22.0 2009 07 18 12 24.92 -14 54.3 3.796 3.695 76.6 15.5 20.9 22.1 2009 07 23 12 29.10 -15 06.4 3.878 3.708 72.9 15.2 21.0 22.1 2009 07 28 12 33.47 -15 20.4 3.959 3.722 69.2 14.8 21.1 22.2 2009 08 02 12 38.01 -15 36.1 4.038 3.736 65.6 14.3 21.2 22.2 2009 08 07 12 42.72 -15 53.4 4.115 3.749 62.1 13.8 21.3 22.2 2009 08 12 12 47.59 -16 12.2 4.191 3.763 58.6 13.3 21.4 22.3 2009 08 17 12 52.59 -16 32.2 4.264 3.776 55.1 12.7 21.5 22.3

Back to Observable Comets

MPC CBAT ICQ

Valid HTML 4.01!